Engelberg, Switzerland 16 day weather forecast

Slopes altitude range 1050 m - 3030m

Number of lifts: 25 Pistes: 82km

In some cases the lift and piste totals shown are for the ski domain (e.g. Three Valleys) rather than individual resort (e.g. Courchevel)

Overview

The 16 day weather forecast is fully updated 4 times every day.

    • Wed 26 JUN 2019
    • Wed 26
    • 24C 32C
    • Thu 27 JUN 2019
    • Thu 27
    • 24C 31C
    • Fri 28 JUN 2019
    • Fri 28
    • 19C 27C
    • Sat 29 JUN 2019
    • Sat 29
    • 18C 27C
    • Sun 30 JUN 2019
    • Sun 30
    • 23C 30C
    • Mon 01 JUL 2019
    • Mon 01
    • 22C 30C
    • Tue 02 JUL 2019
    • Tue 02
    • 16C 20C
    • Wed 03 JUL 2019
    • Wed 03
    • 13C 23C
    • Thu 04 JUL 2019
    • Thu 04
    • 17C 21C
    • Fri 05 JUL 2019
    • Fri 05
    • 19C 23C
    • Sat 06 JUL 2019
    • Sat 06
    • 9C 13C
    • Sun 07 JUL 2019
    • Sun 07
    • 12C 20C
    • Mon 08 JUL 2019
    • Mon 08
    • 18C 23C
    • Tue 09 JUL 2019
    • Tue 09
    • 18C 22C
    • Wed 10 JUL 2019
    • Wed 10
    • 18C 20C
    • Thu 11 JUL 2019
    • Thu 11
    • 19C 24C

Date:

Time Type 0°C level Temp Chill Snow Cloud Speed Gust Dir Press
3:00 4575m 19°C 19_4 0cm 0% 4mph 5mph 1024mB
6:00 4613m 19°C 19_3 0cm 0% 3mph 3mph 1025mB
9:00 4611m 24°C 24_4 0cm 0% 4mph 2mph 1024mB
12:00 4643m 32°C 32_5 0cm 0% 5mph 3mph 1024mB
15:00 4645m 32°C 32_5 0cm 20% 5mph 4mph 1023mB
18:00 4648m 32°C 32_0 0cm 55% 0mph 0mph 1024mB
21:00 4630m 22°C 22_5 0cm 7% 5mph 6mph 1025mB
0:00 4606m 21°C 21_5 0cm 4% 5mph 6mph 1025mB
3:00 4587m 20°C 20_3 0cm 0% 3mph 4mph 1024mB
6:00 4576m 19°C 19_2 0cm 0% 2mph 2mph 1024mB
9:00 4533m 24°C 24_4 0cm 0% 4mph 3mph 1024mB
12:00 4551m 31°C 31_6 0cm 0% 6mph 5mph 1022mB
15:00 4562m 31°C 31_4 0cm 0% 4mph 4mph 1022mB
18:00 4604m 31°C 31_3 0cm 0% 3mph 4mph 1021mB
21:00 4617m 20°C 20_2 0cm 0% 2mph 3mph 1024mB
0:00 4613m 18°C 18_2 0cm 26% 2mph 2mph 1023mB
3:00 4574m 18°C 18_1 0cm 75% 1mph 2mph 1022mB
6:00 4568m 17°C 17_2 0cm 72% 2mph 3mph 1021mB
9:00 4569m 19°C 19_5 0cm 68% 5mph 4mph 1020mB
12:00 4638m 27°C 27_6 0cm 42% 6mph 4mph 1019mB
15:00 4711m 27°C 27_6 0cm 0% 6mph 5mph 1018mB
18:00 4782m 27°C 27_3 0cm 0% 3mph 4mph 1019mB
21:00 4800m 16°C 16_3 0cm 0% 3mph 3mph 1020mB
0:00 4858m 15°C 15_2 0cm 0% 2mph 2mph 1020mB
3:00 4845m 14°C 14_2 0cm 0% 2mph 2mph 1020mB
6:00 4858m 14°C 14_2 0cm 0% 2mph 2mph 1019mB
9:00 4878m 18°C 18_5 0cm 0% 5mph 3mph 1019mB
12:00 4908m 27°C 27_6 0cm 0% 6mph 3mph 1017mB
15:00 4889m 28°C 28_5 0cm 0% 5mph 3mph 1017mB
18:00 4862m 28°C 28_1 0cm 0% 1mph 2mph 1018mB
21:00 4840m 19°C 19_5 0cm 0% 5mph 5mph 1020mB
0:00 4792m 19°C 19_5 0cm 0% 5mph 5mph 1020mB
3:00 4752m 18°C 18_4 0cm 0% 4mph 5mph 1019mB
6:00 4687m 18°C 18_2 0cm 0% 2mph 2mph 1020mB
9:00 4636m 23°C 23_4 0cm 0% 4mph 4mph 1020mB
12:00 4605m 30°C 30_5 0cm 0% 5mph 6mph 1019mB
15:00 4564m 30°C 30_5 0cm 0% 5mph 5mph 1018mB
18:00 4510m 30°C 30_2 0cm 0% 2mph 2mph 1019mB
21:00 4537m 20°C 20_6 0cm 0% 6mph 6mph 1021mB
0:00 4460m 19°C 19_5 0cm 0% 5mph 6mph 1020mB
3:00 4422m 19°C 19_4 0cm 0% 4mph 5mph 1019mB
6:00 4385m 17°C 17_3 0cm 0% 3mph 3mph 1020mB
9:00 4393m 22°C 22_2 0cm 70% 2mph 4mph 1019mB
12:00 4285m 30°C 30_6 0cm 79% 6mph 5mph 1018mB
15:00 4363m 30°C 30_1 0cm 41% 1mph 3mph 1017mB
18:00 4215m 30°C 30_10 0cm 71% 10mph 13mph 1018mB
21:00 4241m 16°C 16_6 0cm 100% 6mph 6mph 1020mB
0:00 4212m 15°C 15_3 0cm 100% 3mph 3mph 1020mB
3:00 4108m 14°C 14_0 0cm 93% 0mph 1mph 1018mB
6:00 4107m 14°C 14_2 0cm 86% 2mph 2mph 1019mB
9:00 4118m 16°C 16_5 0cm 100% 5mph 5mph 1018mB
12:00 4180m 20°C 20_5 0cm 100% 5mph 5mph 1018mB
15:00 4063m 19°C 19_4 0cm 100% 4mph 4mph 1018mB
18:00 4122m 20°C 20_2 0cm 100% 2mph 4mph 1018mB
21:00 4093m 15°C 15_1 0cm 100% 1mph 2mph 1019mB
0:00 4025m 15°C 15_2 0cm 100% 2mph 3mph 1019mB
3:00 3912m 14°C 14_2 0cm 100% 2mph 3mph 1019mB
6:00 3844m 12°C 12_2 0cm 100% 2mph 3mph 1019mB
9:00 3977m 13°C 13_3 0cm 100% 3mph 3mph 1018mB
12:00 3981m 23°C 23_5 0cm 78% 5mph 4mph 1018mB
15:00 4035m 19°C 19_5 0cm 52% 5mph 4mph 1017mB
18:00 4012m 19°C 19_2 0cm 54% 2mph 2mph 1017mB
21:00 4018m 11°C 11_3 0cm 39% 3mph 5mph 1019mB
0:00 3975m 11°C 11_6 0cm 70% 6mph 7mph 1019mB
3:00 4002m 11°C 11_5 0cm 18% 5mph 6mph 1018mB
6:00 3990m 11°C 11_1 0cm 22% 1mph 2mph 1018mB
9:00 3958m 17°C 17_4 0cm 24% 4mph 3mph 1017mB
12:00 3994m 21°C 21_4 0cm 42% 4mph 5mph 1017mB
15:00 4065m 21°C 21_4 0cm 89% 4mph 4mph 1016mB
18:00 4121m 21°C 21_2 0cm 76% 2mph 4mph 1016mB
21:00 4034m 12°C 12_4 0cm 41% 4mph 6mph 1018mB
0:00 4019m 12°C 12_4 0cm 20% 4mph 5mph 1018mB
3:00 4038m 12°C 12_4 0cm 60% 4mph 6mph 1017mB
6:00 3944m 12°C 12_6 0cm 47% 6mph 7mph 1017mB
9:00 3907m 19°C 19_4 0cm 100% 4mph 4mph 1017mB
12:00 3973m 23°C 23_6 0cm 88% 6mph 13mph 1017mB
15:00 4156m 23°C 23_8 0cm 48% 8mph 10mph 1016mB
18:00 4060m 23°C 23_1 0cm 70% 1mph 2mph 1017mB
21:00 4040m 12°C 12_2 0cm 100% 2mph 3mph 1020mB
0:00 3920m 11°C 11_3 0cm 100% 3mph 4mph 1020mB
Afternoon 0.104167mm 0.25 3361m 13°C 13_7 0cm 100% 7mph 7mph 1021mB
Morning 0mm 0 3899m 4°C 4_4 0cm 0% 4mph 4mph 1024mB
Afternoon 0mm 0 4380m 20°C 20_6 0cm 0% 6mph 4mph 1020mB
Morning 0mm 0 4423m 10°C 10_3 0cm 21% 3mph 4mph 1020mB
Afternoon 0mm 0 4364m 23°C 23_6 0cm 6% 6mph 4mph 1017mB
Morning 0.0625mm 0.1875 4301m 13°C 13_4 0cm 51% 4mph 5mph 1018mB
Afternoon 0.416667mm 1.25 4292m 22°C 22_6 0cm 76% 6mph 5mph 1017mB
Morning 0.5625mm 1.6875 4122m 12°C 12_3 0cm 73% 3mph 4mph 1019mB
Afternoon 0.708333mm 2.0625 4157m 20°C 20_5 0cm 87% 5mph 4mph 1016mB
Morning 0.0833333mm 0.25 4015m 11°C 11_2 0cm 37% 2mph 3mph 1017mB
Afternoon 0.0416667mm 0.0625 4078m 24°C 24_5 0cm 49% 5mph 5mph 1012mB
Morning 0.0208333mm 0.125 3781m 10°C 10_2 0cm 100% 2mph 3mph 1011mB

16 day outlook at a glance

Forecast issued: 6/26/2019 8:40:35 AM

Chat

Your comments and questions. In a resort? Let us know what it's like!


Characters left 250

For terms and conditions see Readers Comments on the Cookie and privacy policy page.